Location: Adrasan
(36.3319°N, 30.4314°E)
Time: 12:23:06
(UTC+00:00)

DMSP B5D1-3 - Pass Details

Date: 09 December 2023
Orbit: 763 x 777 km, 98.5° (Epoch: 20 February)

Event Time Altitude Azimuth Distance (km) Brightness Sun altitude
Exits shadow 16:55:47 79° 32° (NNE) 788 4.3 -26.0°
Maximum altitude 16:56:06 86° 102° (ESE) 776 4.3 -26.1°
Drops below altitude 10° 17:01:11 10° 193° (SSW) 2,297 7.2 -27.1°
Sets 17:03:28 0° 193° (SSW) 3,217 8.0 -27.5°
